Time,TemperatureF,DewpointF,PressureIn,WindDirection,WindDirectionDegrees,WindSpeedMPH,WindSpeedGustMPH,Humidity,HourlyPrecipIn,Conditions,Clouds,dailyrainin,SoftwareType,DateUTC
2013-02-24 00:00:00,35.5,34.5,29.83,NE,36,0.0,2.0,96,0.00,,,0.01,VWS V13.01,2013-02-24 05:00:00,
2013-02-24 00:03:00,35.5,34.5,29.82,NE,36,0.0,0.0,96,0.00,,,0.00,VWS V13.01,2013-02-24 05:03:00,
2013-02-24 00:08:00,35.5,34.5,29.82,SE,138,0.0,3.0,96,0.00,,,0.00,VWS V13.01,2013-02-24 05:08:00,
2013-02-24 00:13:00,35.5,34.5,29.82,SE,138,0.0,3.0,96,0.00,,,0.00,VWS V13.01,2013-02-24 05:13:00,
2013-02-24 00:18:00,35.5,34.5,29.82,SE,138,0.0,3.0,96,0.00,,,0.00,VWS V13.01,2013-02-24 05:18:00,
2013-02-24 00:23:00,35.5,34.5,29.82,SE,138,0.0,3.0,96,0.00,,,0.00,VWS V13.01,2013-02-24 05:23:00,
2013-02-24 00:28:00,35.6,34.8,29.82,SE,138,0.0,3.0,97,0.00,,,0.00,VWS V13.01,2013-02-24 05:28:00,
2013-02-24 00:33:00,35.5,34.7,29.81,SE,138,0.0,0.0,97,0.00,,,0.00,VWS V13.01,2013-02-24 05:33:00,
2013-02-24 00:38:00,35.5,34.5,29.81,SE,138,0.0,0.0,96,0.00,,,0.00,VWS V13.01,2013-02-24 05:38:00,
2013-02-24 00:43:00,35.5,34.5,29.81,SE,138,0.0,0.0,96,0.00,,,0.00,VWS V13.01,2013-02-24 05:43:00,
2013-02-24 00:48:00,35.5,34.5,29.81,SE,138,0.0,0.0,96,0.00,,,0.00,VWS V13.01,2013-02-24 05:48:00,
2013-02-24 00:53:00,35.5,34.7,29.81,SE,138,0.0,0.0,97,0.00,,,0.00,VWS V13.01,2013-02-24 05:53:00,
2013-02-24 00:58:00,35.4,34.6,29.81,SE,138,0.0,0.0,97,0.00,,,0.00,VWS V13.01,2013-02-24 05:58:00,
2013-02-24 01:03:00,35.5,34.7,29.80,SE,138,0.0,0.0,97,0.00,,,0.00,VWS V13.01,2013-02-24 06:03:00,
2013-02-24 01:08:00,35.5,34.5,29.80,SE,138,0.0,0.0,96,0.00,,,0.00,VWS V13.01,2013-02-24 06:08:00,
2013-02-24 01:13:00,35.5,34.7,29.80,SE,138,0.0,0.0,97,0.00,,,0.00,VWS V13.01,2013-02-24 06:13:00,
2013-02-24 01:18:00,35.5,34.7,29.80,SE,138,0.0,0.0,97,0.00,,,0.00,VWS V13.01,2013-02-24 06:18:00,
2013-02-24 01:23:00,35.5,34.7,29.80,SE,138,0.0,0.0,97,0.00,,,0.00,VWS V13.01,2013-02-24 06:23:00,
2013-02-24 01:28:00,35.5,34.5,29.80,SE,138,0.0,0.0,96,0.00,,,0.00,VWS V13.01,2013-02-24 06:28:00,
2013-02-24 01:33:00,35.5,34.7,29.80,SE,138,0.0,0.0,97,0.00,,,0.00,VWS V13.01,2013-02-24 06:33:00,
2013-02-24 01:38:00,35.5,34.7,29.80,SE,138,0.0,0.0,97,0.00,,,0.00,VWS V13.01,2013-02-24 06:38:00,
2013-02-24 01:43:00,35.5,34.7,29.80,SE,138,0.0,0.0,97,0.00,,,0.00,VWS V13.01,2013-02-24 06:43:00,
2013-02-24 01:48:00,35.5,34.7,29.80,SE,138,0.0,1.0,97,0.00,,,0.00,VWS V13.01,2013-02-24 06:48:00,
2013-02-24 01:53:00,35.5,34.7,29.79,SE,138,0.0,1.0,97,0.00,,,0.00,VWS V13.01,2013-02-24 06:53:00,
2013-02-24 01:58:00,35.5,34.7,29.80,SE,138,0.0,2.0,97,0.00,,,0.00,VWS V13.01,2013-02-24 06:58:00,
2013-02-24 02:03:00,35.5,34.7,29.79,SE,138,0.0,0.0,97,0.00,,,0.00,VWS V13.01,2013-02-24 07:03:00,
2013-02-24 02:08:00,35.5,34.7,29.79,SE,138,0.0,0.0,97,0.00,,,0.00,VWS V13.01,2013-02-24 07:08:00,
2013-02-24 02:13:00,35.5,34.7,29.79,SE,138,0.0,0.0,97,0.00,,,0.00,VWS V13.01,2013-02-24 07:13:00,
2013-02-24 02:18:00,35.5,34.7,29.80,SE,138,0.0,1.0,97,0.00,,,0.00,VWS V13.01,2013-02-24 07:18:00,
2013-02-24 02:23:00,35.5,34.7,29.80,SE,138,0.0,2.0,97,0.00,,,0.00,VWS V13.01,2013-02-24 07:23:00,
2013-02-24 02:28:00,35.5,34.7,29.81,SE,138,1.0,3.0,97,0.00,,,0.00,VWS V13.01,2013-02-24 07:28:00,
2013-02-24 02:33:00,35.5,34.7,29.81,SE,140,2.0,3.0,97,0.00,,,0.00,VWS V13.01,2013-02-24 07:33:00,
2013-02-24 02:38:00,35.5,34.7,29.81,SW,224,1.0,4.0,97,0.00,,,0.00,VWS V13.01,2013-02-24 07:38:00,
2013-02-24 02:43:00,35.5,34.7,29.81,SW,224,1.0,4.0,97,0.00,,,0.00,VWS V13.01,2013-02-24 07:43:00,
2013-02-24 02:48:00,35.6,34.8,29.81,SW,224,0.0,4.0,97,0.00,,,0.00,VWS V13.01,2013-02-24 07:48:00,
2013-02-24 02:53:00,35.5,34.7,29.81,SW,223,0.0,4.0,97,0.00,,,0.00,VWS V13.01,2013-02-24 07:53:00,
2013-02-24 02:58:00,35.6,34.8,29.81,SW,223,1.0,4.0,97,0.00,,,0.00,VWS V13.01,2013-02-24 07:58:00,
2013-02-24 03:03:00,35.6,34.8,29.81,SW,222,0.0,3.0,97,0.00,,,0.00,VWS V13.01,2013-02-24 08:03:00,
2013-02-24 03:08:00,35.6,34.8,29.81,SW,222,1.0,3.0,97,0.00,,,0.00,VWS V13.01,2013-02-24 08:08:00,
2013-02-24 03:13:00,35.6,34.8,29.80,SW,223,0.0,3.0,97,0.00,,,0.00,VWS V13.01,2013-02-24 08:13:00,
2013-02-24 03:18:00,35.6,34.8,29.80,SW,231,1.0,3.0,97,0.00,,,0.00,VWS V13.01,2013-02-24 08:18:00,
2013-02-24 03:23:00,35.6,34.8,29.80,SW,231,1.0,3.0,97,0.00,,,0.00,VWS V13.01,2013-02-24 08:23:00,
2013-02-24 03:28:00,35.6,34.8,29.80,SW,231,0.0,3.0,97,0.00,,,0.00,VWS V13.01,2013-02-24 08:28:00,
2013-02-24 03:33:00,35.6,34.8,29.80,SW,231,0.0,1.0,97,0.00,,,0.00,VWS V13.01,2013-02-24 08:33:00,
2013-02-24 03:38:00,35.6,34.8,29.80,SW,231,0.0,2.0,97,0.00,,,0.00,VWS V13.01,2013-02-24 08:38:00,
2013-02-24 03:43:00,35.6,35.1,29.80,SW,231,0.0,2.0,98,0.00,,,0.00,VWS V13.01,2013-02-24 08:43:00,
2013-02-24 03:48:00,35.6,34.8,29.79,SW,217,0.0,4.0,97,0.00,,,0.00,VWS V13.01,2013-02-24 08:48:00,
2013-02-24 03:54:00,35.5,34.7,29.79,SW,217,2.0,4.0,97,0.00,,,0.00,VWS V13.01,2013-02-24 08:54:00,
2013-02-24 03:59:00,35.5,34.7,29.79,SW,217,0.0,4.0,97,0.00,,,0.00,VWS V13.01,2013-02-24 08:59:00,
2013-02-24 04:04:00,35.5,34.7,29.78,SW,217,0.0,0.0,97,0.00,,,0.00,VWS V13.01,2013-02-24 09:04:00,
2013-02-24 04:09:00,35.5,34.7,29.78,SW,217,0.0,1.0,97,0.00,,,0.00,VWS V13.01,2013-02-24 09:09:00,
2013-02-24 04:14:00,35.5,34.7,29.79,SW,217,0.0,2.0,97,0.00,,,0.00,VWS V13.01,2013-02-24 09:14:00,
2013-02-24 04:19:00,35.4,34.6,29.79,SW,217,0.0,2.0,97,0.00,,,0.00,VWS V13.01,2013-02-24 09:19:00,
2013-02-24 04:24:00,35.4,34.6,29.79,SW,217,1.0,3.0,97,0.00,,,0.00,VWS V13.01,2013-02-24 09:24:00,
2013-02-24 04:29:00,35.4,34.6,29.79,SW,217,1.0,3.0,97,0.00,,,0.00,VWS V13.01,2013-02-24 09:29:00,
2013-02-24 04:34:00,35.4,34.6,29.80,SW,218,0.0,3.0,97,0.00,,,0.00,VWS V13.01,2013-02-24 09:34:00,
2013-02-24 04:39:00,35.4,34.6,29.80,SW,218,3.0,4.0,97,0.00,,,0.00,VWS V13.01,2013-02-24 09:39:00,
2013-02-24 04:44:00,35.3,34.5,29.79,SW,223,1.0,4.0,97,0.00,,,0.00,VWS V13.01,2013-02-24 09:44:00,
2013-02-24 04:49:00,35.3,34.5,29.79,SW,233,0.0,4.0,97,0.00,,,0.00,VWS V13.01,2013-02-24 09:49:00,
2013-02-24 04:54:00,35.3,34.5,29.79,WSW,249,1.0,4.0,97,0.00,,,0.00,VWS V13.01,2013-02-24 09:54:00,
2013-02-24 04:59:00,35.3,34.5,29.79,WSW,246,0.0,4.0,97,0.00,,,0.00,VWS V13.01,2013-02-24 09:59:00,
2013-02-24 05:04:00,35.3,34.5,29.80,SW,221,0.0,3.0,97,0.00,,,0.00,VWS V13.01,2013-02-24 10:04:00,
2013-02-24 05:09:00,35.3,34.5,29.80,SW,229,0.0,4.0,97,0.00,,,0.00,VWS V13.01,2013-02-24 10:09:00,
2013-02-24 05:14:00,35.2,34.4,29.80,SSW,207,1.0,4.0,97,0.00,,,0.00,VWS V13.01,2013-02-24 10:14:00,
2013-02-24 05:19:00,35.2,34.4,29.80,West,265,0.0,4.0,97,0.00,,,0.00,VWS V13.01,2013-02-24 10:19:00,
2013-02-24 05:24:00,35.1,34.3,29.80,WSW,242,1.0,4.0,97,0.00,,,0.00,VWS V13.01,2013-02-24 10:24:00,
2013-02-24 05:29:00,34.9,34.1,29.80,WSW,239,0.0,4.0,97,0.00,,,0.00,VWS V13.01,2013-02-24 10:29:00,
2013-02-24 05:34:00,34.9,34.1,29.80,SW,222,0.0,4.0,97,0.00,,,0.00,VWS V13.01,2013-02-24 10:34:00,
2013-02-24 05:39:00,34.8,34.0,29.80,SW,222,1.0,4.0,97,0.00,,,0.00,VWS V13.01,2013-02-24 10:39:00,
2013-02-24 05:44:00,34.7,33.9,29.80,SW,226,2.0,4.0,97,0.00,,,0.00,VWS V13.01,2013-02-24 10:44:00,
2013-02-24 05:49:00,34.6,33.8,29.81,SSW,196,3.0,5.0,97,0.00,,,0.00,VWS V13.01,2013-02-24 10:49:00,
2013-02-24 05:54:00,34.5,33.7,29.81,SW,215,2.0,5.0,97,0.00,,,0.00,VWS V13.01,2013-02-24 10:54:00,
2013-02-24 05:59:00,34.4,33.6,29.81,SSW,203,5.0,7.0,97,0.00,,,0.00,VWS V13.01,2013-02-24 10:59:00,
2013-02-24 06:04:00,34.3,33.5,29.81,West,267,0.0,6.0,97,0.00,,,0.00,VWS V13.01,2013-02-24 11:04:00,
2013-02-24 06:09:00,34.2,33.2,29.81,WNW,282,0.0,7.0,96,0.00,,,0.00,VWS V13.01,2013-02-24 11:09:00,
2013-02-24 06:14:00,34.2,33.2,29.81,WNW,283,0.0,7.0,96,0.00,,,0.00,VWS V13.01,2013-02-24 11:14:00,
2013-02-24 06:19:00,34.1,33.3,29.82,West,268,2.0,7.0,97,0.00,,,0.00,VWS V13.01,2013-02-24 11:19:00,
2013-02-24 06:24:00,34.0,33.0,29.82,SW,214,2.0,7.0,96,0.00,,,0.00,VWS V13.01,2013-02-24 11:24:00,
2013-02-24 06:29:00,34.0,33.0,29.82,SSW,213,1.0,7.0,96,0.00,,,0.00,VWS V13.01,2013-02-24 11:29:00,
2013-02-24 06:34:00,33.9,32.9,29.82,SSW,213,0.0,2.0,96,0.00,,,0.00,VWS V13.01,2013-02-24 11:34:00,
2013-02-24 06:39:00,33.9,32.9,29.82,SSW,213,0.0,2.0,96,0.00,,,0.00,VWS V13.01,2013-02-24 11:39:00,
2013-02-24 06:44:00,33.8,32.8,29.82,SW,214,1.0,3.0,96,0.00,,,0.00,VWS V13.01,2013-02-24 11:44:00,
2013-02-24 06:49:00,33.8,32.8,29.82,SW,215,2.0,3.0,96,0.00,,,0.00,VWS V13.01,2013-02-24 11:49:00,
2013-02-24 06:54:00,33.7,32.7,29.83,SW,215,0.0,3.0,96,0.00,,,0.00,VWS V13.01,2013-02-24 11:54:00,
2013-02-24 06:59:00,33.6,32.6,29.83,SSW,208,2.0,4.0,96,0.00,,,0.00,VWS V13.01,2013-02-24 11:59:00,
2013-02-24 07:04:00,33.6,32.6,29.82,SSW,208,0.0,2.0,96,0.00,,,0.00,VWS V13.01,2013-02-24 12:04:00,
2013-02-24 07:09:00,33.6,32.6,29.83,SSW,208,0.0,2.0,96,0.00,,,0.00,VWS V13.01,2013-02-24 12:09:00,
2013-02-24 07:14:00,33.6,32.6,29.83,SSW,208,0.0,2.0,96,0.00,,,0.00,VWS V13.01,2013-02-24 12:14:00,
2013-02-24 07:19:00,33.6,32.6,29.82,SSW,208,0.0,2.0,96,0.00,,,0.00,VWS V13.01,2013-02-24 12:19:00,
2013-02-24 07:24:00,33.7,32.7,29.83,SSW,208,0.0,2.0,96,0.00,,,0.00,VWS V13.01,2013-02-24 12:24:00,
2013-02-24 07:29:00,33.8,32.8,29.83,SSW,208,0.0,2.0,96,0.00,,,0.00,VWS V13.01,2013-02-24 12:29:00,
2013-02-24 07:34:00,33.8,32.8,29.83,SSW,209,0.0,2.0,96,0.00,,,0.00,VWS V13.01,2013-02-24 12:34:00,
2013-02-24 07:39:00,33.9,32.9,29.83,SSW,210,0.0,3.0,96,0.00,,,0.00,VWS V13.01,2013-02-24 12:39:00,
2013-02-24 07:44:00,34.0,33.0,29.83,SW,214,1.0,4.0,96,0.00,,,0.00,VWS V13.01,2013-02-24 12:44:00,
2013-02-24 07:49:00,34.1,33.1,29.83,SW,214,0.0,4.0,96,0.00,,,0.00,VWS V13.01,2013-02-24 12:49:00,
2013-02-24 07:54:00,34.2,33.2,29.83,SW,227,1.0,4.0,96,0.00,,,0.00,VWS V13.01,2013-02-24 12:54:00,
2013-02-24 07:59:00,34.3,33.3,29.83,SW,227,0.0,4.0,96,0.00,,,0.00,VWS V13.01,2013-02-24 12:59:00,
2013-02-24 08:04:00,34.4,33.4,29.83,SW,227,1.0,2.0,96,0.00,,,0.00,VWS V13.01,2013-02-24 13:04:00,
2013-02-24 08:09:00,34.5,33.5,29.83,SW,227,0.0,3.0,96,0.00,,,0.00,VWS V13.01,2013-02-24 13:09:00,
2013-02-24 08:14:00,34.6,33.6,29.83,SW,227,2.0,3.0,96,0.00,,,0.00,VWS V13.01,2013-02-24 13:14:00,
2013-02-24 08:19:00,34.7,33.7,29.83,SW,227,1.0,3.0,96,0.00,,,0.00,VWS V13.01,2013-02-24 13:19:00,
2013-02-24 08:24:00,34.8,33.5,29.83,SW,223,1.0,3.0,95,0.00,,,0.00,VWS V13.01,2013-02-24 13:24:00,
2013-02-24 08:29:00,35.1,33.8,29.83,SW,223,0.0,3.0,95,0.00,,,0.00,VWS V13.01,2013-02-24 13:29:00,
2013-02-24 08:34:00,35.2,33.9,29.83,SW,236,1.0,3.0,95,0.00,,,0.00,VWS V13.01,2013-02-24 13:34:00,
2013-02-24 08:39:00,35.4,34.1,29.83,SW,225,3.0,4.0,95,0.00,,,0.00,VWS V13.01,2013-02-24 13:39:00,
2013-02-24 08:44:00,35.5,34.0,29.83,SW,233,0.0,4.0,94,0.00,,,0.00,VWS V13.01,2013-02-24 13:44:00,
2013-02-24 08:49:00,35.6,34.0,29.83,NW,305,0.0,4.0,94,0.00,,,0.00,VWS V13.01,2013-02-24 13:49:00,
2013-02-24 08:54:00,35.7,34.2,29.83,West,279,3.0,4.0,94,0.00,,,0.00,VWS V13.01,2013-02-24 13:54:00,
2013-02-24 08:59:00,35.7,34.2,29.83,West,260,2.0,5.0,94,0.00,,,0.00,VWS V13.01,2013-02-24 13:59:00,
2013-02-24 09:04:00,35.9,34.3,29.83,SW,218,2.0,5.0,94,0.00,,,0.00,VWS V13.01,2013-02-24 14:04:00,
2013-02-24 09:09:00,36.1,34.3,29.83,SW,220,3.0,7.0,93,0.00,,,0.00,VWS V13.01,2013-02-24 14:09:00,
2013-02-24 09:14:00,36.3,33.9,29.84,West,261,3.0,9.0,91,0.00,,,0.00,VWS V13.01,2013-02-24 14:14:00,
2013-02-24 09:19:00,36.5,34.1,29.83,WSW,254,0.0,10.0,91,0.00,,,0.00,VWS V13.01,2013-02-24 14:19:00,
2013-02-24 09:24:00,36.7,34.3,29.83,WNW,286,0.0,10.0,91,0.00,,,0.00,VWS V13.01,2013-02-24 14:24:00,
2013-02-24 09:29:00,37.3,34.9,29.83,SW,220,3.0,10.0,91,0.00,,,0.00,VWS V13.01,2013-02-24 14:29:00,
2013-02-24 09:34:00,37.7,34.8,29.83,SW,225,1.0,7.0,89,0.00,,,0.00,VWS V13.01,2013-02-24 14:34:00,
2013-02-24 09:39:00,38.2,35.0,29.83,West,272,3.0,9.0,88,0.00,,,0.00,VWS V13.01,2013-02-24 14:39:00,
2013-02-24 09:44:00,38.5,35.3,29.83,SW,223,3.0,9.0,88,0.00,,,0.00,VWS V13.01,2013-02-24 14:44:00,
2013-02-24 09:49:00,38.9,35.1,29.83,WSW,243,5.0,9.0,86,0.00,,,0.00,VWS V13.01,2013-02-24 14:49:00,
2013-02-24 09:54:00,39.2,34.8,29.83,WSW,244,7.0,9.0,84,0.00,,,0.00,VWS V13.01,2013-02-24 14:54:00,
2013-02-24 09:59:00,39.2,33.2,29.83,SW,221,7.0,10.0,79,0.00,,,0.00,VWS V13.01,2013-02-24 14:59:00,
2013-02-24 10:04:00,39.1,33.5,29.84,WSW,257,3.0,7.0,80,0.00,,BKN035,0.00,VWS V13.01,2013-02-24 15:04:00,
2013-02-24 10:09:00,39.0,32.7,29.83,West,259,3.0,7.0,78,0.00,,BKN035,0.00,VWS V13.01,2013-02-24 15:09:00,
2013-02-24 10:14:00,38.8,32.9,29.83,WNW,295,4.0,9.0,79,0.00,,BKN035,0.00,VWS V13.01,2013-02-24 15:14:00,
2013-02-24 10:19:00,38.6,32.7,29.83,West,263,3.0,9.0,79,0.00,,BKN035,0.00,VWS V13.01,2013-02-24 15:19:00,
2013-02-24 10:24:00,38.5,32.9,29.83,WSW,247,0.0,9.0,80,0.00,,BKN035,0.00,VWS V13.01,2013-02-24 15:24:00,
2013-02-24 10:29:00,38.3,32.4,29.83,WNW,284,2.0,9.0,79,0.00,,BKN035,0.00,VWS V13.01,2013-02-24 15:29:00,
2013-02-24 10:34:00,38.2,32.0,29.83,WSW,253,2.0,9.0,78,0.00,,BKN035,0.00,VWS V13.01,2013-02-24 15:34:00,
2013-02-24 10:39:00,38.1,31.9,29.83,West,270,0.0,9.0,78,0.00,,BKN035,0.00,VWS V13.01,2013-02-24 15:39:00,
2013-02-24 10:44:00,38.1,31.5,29.85,SW,220,5.0,9.0,77,0.00,,BKN035,0.00,VWS V13.01,2013-02-24 15:44:00,
2013-02-24 10:49:00,38.1,31.2,29.84,SW,233,6.0,16.0,76,0.00,,BKN035,0.00,VWS V13.01,2013-02-24 15:49:00,
2013-02-24 10:54:00,38.4,31.5,29.84,SW,219,7.0,16.0,76,0.00,,BKN035,0.00,VWS V13.01,2013-02-24 15:54:00,
2013-02-24 10:59:00,38.5,31.3,29.84,WSW,252,1.0,16.0,75,0.00,,BKN035,0.00,VWS V13.01,2013-02-24 15:59:00,
2013-02-24 11:04:00,38.5,31.0,29.84,SW,234,5.0,13.0,74,0.00,,BKN035,0.00,VWS V13.01,2013-02-24 16:04:00,
2013-02-24 11:09:00,38.7,31.1,29.85,WSW,241,3.0,15.0,74,0.00,,BKN035,0.00,VWS V13.01,2013-02-24 16:09:00,
2013-02-24 11:14:00,38.8,30.9,29.85,SSW,211,7.0,15.0,73,0.00,,BKN035,0.00,VWS V13.01,2013-02-24 16:14:00,
2013-02-24 11:19:00,38.8,30.6,29.84,West,273,2.0,15.0,72,0.00,,BKN035,0.00,VWS V13.01,2013-02-24 16:19:00,
2013-02-24 11:24:00,38.9,31.0,29.85,WNW,299,1.0,15.0,73,0.00,,BKN035,0.00,VWS V13.01,2013-02-24 16:24:00,
2013-02-24 11:29:00,38.6,29.7,29.85,WNW,298,3.0,15.0,70,0.00,,BKN035,0.00,VWS V13.01,2013-02-24 16:29:00,
2013-02-24 11:34:00,38.5,29.2,29.85,WSW,245,3.0,10.0,69,0.00,,BKN035,0.00,VWS V13.01,2013-02-24 16:34:00,
2013-02-24 11:39:00,38.4,29.1,29.85,WSW,252,8.0,12.0,69,0.00,,BKN035,0.00,VWS V13.01,2013-02-24 16:39:00,
2013-02-24 11:44:00,38.3,29.0,29.84,SSW,212,5.0,12.0,69,0.00,,BKN035,0.00,VWS V13.01,2013-02-24 16:44:00,
2013-02-24 11:49:00,38.3,28.3,29.84,SW,216,5.0,12.0,67,0.00,,BKN035,0.00,VWS V13.01,2013-02-24 16:49:00,
2013-02-24 11:54:00,38.3,28.3,29.85,WSW,240,5.0,12.0,67,0.00,,BKN035,0.00,VWS V13.01,2013-02-24 16:54:00,
2013-02-24 11:59:00,38.2,28.2,29.85,WSW,241,2.0,14.0,67,0.00,,BKN035,0.00,VWS V13.01,2013-02-24 16:59:00,
2013-02-24 12:04:00,38.2,28.2,29.85,WSW,250,2.0,11.0,67,0.00,,OVC037,0.00,VWS V13.01,2013-02-24 17:04:00,
2013-02-24 12:09:00,38.1,27.8,29.85,WSW,250,7.0,15.0,66,0.00,,OVC037,0.00,VWS V13.01,2013-02-24 17:09:00,
2013-02-24 12:14:00,38.1,27.8,29.85,West,269,6.0,15.0,66,0.00,,OVC037,0.00,VWS V13.01,2013-02-24 17:14:00,
2013-02-24 12:19:00,38.2,28.2,29.85,WSW,242,5.0,15.0,67,0.00,,OVC037,0.00,VWS V13.01,2013-02-24 17:19:00,
2013-02-24 12:24:00,38.3,28.0,29.85,SW,221,6.0,15.0,66,0.00,,OVC037,0.00,VWS V13.01,2013-02-24 17:24:00,
2013-02-24 12:29:00,38.1,27.4,29.86,SW,223,7.0,18.0,65,0.00,,OVC037,0.00,VWS V13.01,2013-02-24 17:29:00,
2013-02-24 12:34:00,38.0,27.7,29.85,WSW,255,8.0,11.0,66,0.00,,OVC037,0.00,VWS V13.01,2013-02-24 17:34:00,
2013-02-24 12:39:00,37.9,27.9,29.86,SW,231,6.0,11.0,67,0.00,,OVC037,0.00,VWS V13.01,2013-02-24 17:39:00,
2013-02-24 12:44:00,37.7,27.4,29.85,West,274,2.0,12.0,66,0.00,,OVC037,0.00,VWS V13.01,2013-02-24 17:44:00,
2013-02-24 12:49:00,37.5,27.2,29.86,WSW,251,4.0,12.0,66,0.00,,OVC037,0.00,VWS V13.01,2013-02-24 17:49:00,
2013-02-24 12:54:00,37.4,27.5,29.86,WSW,240,2.0,12.0,67,0.00,,OVC037,0.00,VWS V13.01,2013-02-24 17:54:00,
2013-02-24 12:59:00,37.2,27.3,29.86,WSW,258,5.0,12.0,67,0.00,,OVC037,0.00,VWS V13.01,2013-02-24 17:59:00,
2013-02-24 13:04:00,37.0,27.1,29.86,West,267,2.0,10.0,67,0.00,,OVC037,0.00,VWS V13.01,2013-02-24 18:04:00,
2013-02-24 13:10:00,36.8,26.9,29.86,SW,228,3.0,10.0,67,0.00,,OVC037,0.00,VWS V13.01,2013-02-24 18:10:00,
2013-02-24 13:15:00,36.6,26.7,29.86,WSW,249,6.0,10.0,67,0.00,,OVC037,0.00,VWS V13.01,2013-02-24 18:15:00,
2013-02-24 13:20:00,36.5,27.0,29.86,WSW,249,1.0,10.0,68,0.00,,OVC037,0.00,VWS V13.01,2013-02-24 18:20:00,
2013-02-24 13:24:00,36.4,26.9,29.86,SW,224,5.0,10.0,68,0.00,,OVC037,0.00,VWS V13.01,2013-02-24 18:24:00,
2013-02-24 13:30:00,36.3,27.1,29.86,West,272,2.0,10.0,69,0.00,,OVC037,0.00,VWS V13.01,2013-02-24 18:30:00,
2013-02-24 13:35:00,36.2,27.0,29.85,WNW,302,2.0,5.0,69,0.00,,OVC037,0.00,VWS V13.01,2013-02-24 18:35:00,
2013-02-24 13:40:00,36.1,26.9,29.86,WSW,255,2.0,8.0,69,0.00,,OVC037,0.00,VWS V13.01,2013-02-24 18:40:00,
2013-02-24 13:45:00,36.1,26.9,29.86,WSW,254,5.0,8.0,69,0.00,,OVC037,0.00,VWS V13.01,2013-02-24 18:45:00,
2013-02-24 13:50:00,36.0,26.8,29.86,NW,307,1.0,9.0,69,0.00,,OVC037,0.00,VWS V13.01,2013-02-24 18:50:00,
2013-02-24 13:54:00,35.9,26.7,29.86,NNW,331,2.0,9.0,69,0.00,,OVC037,0.00,VWS V13.01,2013-02-24 18:54:00,
2013-02-24 13:59:00,35.7,26.5,29.86,WSW,240,1.0,9.0,69,0.00,,OVC037,0.00,VWS V13.01,2013-02-24 18:59:00,
2013-02-24 14:05:00,35.7,26.5,29.86,NW,307,1.0,4.0,69,0.00,,OVC039,0.00,VWS V13.01,2013-02-24 19:05:00,
2013-02-24 14:10:00,35.6,26.5,29.86,WNW,300,1.0,7.0,69,0.00,,OVC039,0.00,VWS V13.01,2013-02-24 19:10:00,
2013-02-24 14:14:00,35.4,26.3,29.87,West,260,2.0,7.0,69,0.00,,OVC039,0.00,VWS V13.01,2013-02-24 19:14:00,
2013-02-24 14:19:00,35.1,25.6,29.87,WNW,286,3.0,12.0,68,0.00,,OVC039,0.00,VWS V13.01,2013-02-24 19:19:00,
2013-02-24 14:25:00,35.0,25.9,29.87,West,278,1.0,12.0,69,0.00,,OVC039,0.00,VWS V13.01,2013-02-24 19:25:00,
2013-02-24 14:30:00,34.9,25.8,29.87,West,269,0.0,13.0,69,0.00,,OVC039,0.00,VWS V13.01,2013-02-24 19:30:00,
2013-02-24 14:35:00,34.9,25.8,29.87,SW,234,2.0,7.0,69,0.00,,OVC039,0.00,VWS V13.01,2013-02-24 19:35:00,
2013-02-24 14:40:00,34.9,25.1,29.87,West,273,5.0,10.0,67,0.00,,OVC039,0.00,VWS V13.01,2013-02-24 19:40:00,
2013-02-24 14:45:00,35.0,25.5,29.87,West,270,2.0,10.0,68,0.00,,OVC039,0.00,VWS V13.01,2013-02-24 19:45:00,
2013-02-24 14:50:00,35.0,25.2,29.87,WSW,247,6.0,11.0,67,0.00,,OVC039,0.00,VWS V13.01,2013-02-24 19:50:00,
2013-02-24 14:55:00,35.0,25.2,29.87,West,264,2.0,11.0,67,0.00,,OVC039,0.00,VWS V13.01,2013-02-24 19:55:00,
2013-02-24 15:00:00,35.0,25.2,29.88,SW,235,2.0,11.0,67,0.00,,OVC039,0.00,VWS V13.01,2013-02-24 20:00:00,
2013-02-24 15:05:00,35.0,25.2,29.88,SSW,210,1.0,6.0,67,0.00,,OVC039,0.00,VWS V13.01,2013-02-24 20:05:00,
2013-02-24 15:10:00,35.0,24.8,29.88,WSW,256,5.0,7.0,66,0.00,,OVC039,0.00,VWS V13.01,2013-02-24 20:10:00,
2013-02-24 15:15:00,35.1,24.9,29.88,SW,216,5.0,7.0,66,0.00,,OVC039,0.00,VWS V13.01,2013-02-24 20:15:00,
2013-02-24 15:20:00,35.2,25.0,29.89,West,262,2.0,7.0,66,0.00,,OVC039,0.00,VWS V13.01,2013-02-24 20:20:00,
2013-02-24 15:25:00,35.2,24.6,29.89,WNW,291,4.0,7.0,65,0.00,,OVC039,0.00,VWS V13.01,2013-02-24 20:25:00,
2013-02-24 15:30:00,35.3,24.7,29.89,WNW,282,2.0,8.0,65,0.00,,OVC039,0.00,VWS V13.01,2013-02-24 20:30:00,
2013-02-24 15:35:00,35.3,24.4,29.89,West,279,0.0,6.0,64,0.00,,BKN049,0.00,VWS V13.01,2013-02-24 20:35:00,
2013-02-24 15:40:00,35.3,24.0,29.89,WSW,256,2.0,6.0,63,0.00,,BKN049,0.00,VWS V13.01,2013-02-24 20:40:00,
2013-02-24 15:45:00,35.4,24.1,29.90,WSW,255,0.0,7.0,63,0.00,,BKN049,0.00,VWS V13.01,2013-02-24 20:45:00,
2013-02-24 15:50:00,35.5,23.8,29.90,WNW,284,1.0,8.0,62,0.00,,BKN049,0.00,VWS V13.01,2013-02-24 20:50:00,
2013-02-24 15:55:00,35.4,23.7,29.90,NW,304,0.0,9.0,62,0.00,,BKN049,0.00,VWS V13.01,2013-02-24 20:55:00,
2013-02-24 16:00:00,35.4,23.3,29.89,SW,221,3.0,9.0,61,0.00,,BKN049,0.00,VWS V13.01,2013-02-24 21:00:00,
2013-02-24 16:05:00,35.4,23.3,29.90,West,264,4.0,6.0,61,0.00,,BKN049,0.00,VWS V13.01,2013-02-24 21:05:00,
2013-02-24 16:10:00,35.4,22.9,29.90,WSW,247,0.0,6.0,60,0.00,,BKN049,0.00,VWS V13.01,2013-02-24 21:10:00,
2013-02-24 16:15:00,35.3,22.8,29.90,WNW,290,3.0,6.0,60,0.00,,BKN049,0.00,VWS V13.01,2013-02-24 21:15:00,
2013-02-24 16:20:00,35.3,22.4,29.90,WNW,298,2.0,14.0,59,0.00,,BKN049,0.00,VWS V13.01,2013-02-24 21:20:00,
2013-02-24 16:25:00,35.4,22.9,29.91,WNW,291,9.0,14.0,60,0.00,,BKN049,0.00,VWS V13.01,2013-02-24 21:25:00,
2013-02-24 16:30:00,35.5,23.0,29.90,WNW,288,0.0,14.0,60,0.00,,BKN049,0.00,VWS V13.01,2013-02-24 21:30:00,
2013-02-24 16:35:00,35.6,22.7,29.90,West,260,0.0,6.0,59,0.00,,OVC060,0.00,VWS V13.01,2013-02-24 21:35:00,
2013-02-24 16:40:00,35.7,22.8,29.91,West,260,1.0,6.0,59,0.00,,OVC060,0.00,VWS V13.01,2013-02-24 21:40:00,
2013-02-24 16:45:00,35.8,22.5,29.91,WNW,295,4.0,8.0,58,0.00,,OVC060,0.00,VWS V13.01,2013-02-24 21:45:00,
2013-02-24 16:50:00,35.8,22.5,29.91,WSW,248,2.0,8.0,58,0.00,,OVC060,0.00,VWS V13.01,2013-02-24 21:50:00,
2013-02-24 16:55:00,35.7,22.0,29.92,West,271,4.0,8.0,57,0.00,,OVC060,0.00,VWS V13.01,2013-02-24 21:55:00,
2013-02-24 17:00:00,35.6,21.9,29.91,West,260,3.0,8.0,57,0.00,,OVC060,0.00,VWS V13.01,2013-02-24 22:00:00,
2013-02-24 17:05:00,35.5,21.8,29.92,SW,228,3.0,7.0,57,0.00,,OVC060,0.00,VWS V13.01,2013-02-24 22:05:00,
2013-02-24 17:10:00,35.4,21.7,29.92,West,260,4.0,9.0,57,0.00,,OVC060,0.00,VWS V13.01,2013-02-24 22:10:00,
2013-02-24 17:15:00,35.3,21.6,29.92,West,263,5.0,10.0,57,0.00,,OVC060,0.00,VWS V13.01,2013-02-24 22:15:00,
2013-02-24 17:20:00,35.2,21.9,29.92,West,275,2.0,10.0,58,0.00,,OVC060,0.00,VWS V13.01,2013-02-24 22:20:00,
2013-02-24 17:25:00,35.1,21.8,29.92,SW,234,2.0,10.0,58,0.00,,OVC060,0.00,VWS V13.01,2013-02-24 22:25:00,
2013-02-24 17:30:00,35.0,21.7,29.93,WSW,240,2.0,10.0,58,0.00,,OVC060,0.00,VWS V13.01,2013-02-24 22:30:00,
2013-02-24 17:35:00,34.9,21.2,29.93,SW,215,5.0,9.0,57,0.00,,OVC065,0.00,VWS V13.01,2013-02-24 22:35:00,
2013-02-24 17:40:00,34.9,21.6,29.93,WSW,254,3.0,9.0,58,0.00,,OVC065,0.00,VWS V13.01,2013-02-24 22:40:00,
2013-02-24 17:45:00,34.7,21.9,29.94,WSW,250,2.0,9.0,59,0.00,,OVC065,0.00,VWS V13.01,2013-02-24 22:45:00,
2013-02-24 17:50:00,34.6,21.8,29.94,WSW,241,3.0,9.0,59,0.00,,OVC065,0.00,VWS V13.01,2013-02-24 22:50:00,
2013-02-24 17:55:00,34.5,21.7,29.94,SW,235,2.0,11.0,59,0.00,,OVC065,0.00,VWS V13.01,2013-02-24 22:55:00,
2013-02-24 18:00:00,34.4,21.6,29.95,West,265,7.0,11.0,59,0.00,,OVC065,0.00,VWS V13.01,2013-02-24 23:00:00,
2013-02-24 18:05:00,34.3,21.9,29.94,West,276,4.0,9.0,60,0.00,,OVC065,0.00,VWS V13.01,2013-02-24 23:05:00,
2013-02-24 18:10:00,34.2,21.8,29.95,WSW,253,4.0,9.0,60,0.00,,OVC065,0.00,VWS V13.01,2013-02-24 23:10:00,
2013-02-24 18:15:00,34.0,21.6,29.95,WSW,252,3.0,9.0,60,0.00,,OVC065,0.00,VWS V13.01,2013-02-24 23:15:00,
2013-02-24 18:20:00,33.9,21.5,29.95,West,273,2.0,9.0,60,0.00,,OVC065,0.00,VWS V13.01,2013-02-24 23:20:00,
2013-02-24 18:25:00,33.7,21.7,29.95,WSW,240,0.0,9.0,61,0.00,,OVC065,0.00,VWS V13.01,2013-02-24 23:25:00,
2013-02-24 18:30:00,33.6,21.6,29.96,WSW,238,0.0,9.0,61,0.00,,OVC065,0.00,VWS V13.01,2013-02-24 23:30:00,
2013-02-24 18:35:00,33.5,21.9,29.96,WSW,238,0.0,0.0,62,0.00,,OVC065,0.00,VWS V13.01,2013-02-24 23:35:00,
2013-02-24 18:40:00,33.4,21.8,29.96,SW,232,1.0,4.0,62,0.00,,OVC065,0.00,VWS V13.01,2013-02-24 23:40:00,
2013-02-24 18:45:00,33.3,21.3,29.97,WSW,255,1.0,6.0,61,0.00,,OVC065,0.00,VWS V13.01,2013-02-24 23:45:00,
2013-02-24 18:50:00,33.3,21.3,29.97,WSW,248,2.0,7.0,61,0.00,,OVC065,0.00,VWS V13.01,2013-02-24 23:50:00,
2013-02-24 18:55:00,33.3,21.3,29.97,SW,223,1.0,7.0,61,0.00,,OVC065,0.00,VWS V13.01,2013-02-24 23:55:00,
2013-02-24 19:00:00,33.4,21.0,29.97,WSW,248,3.0,4.0,60,0.00,,OVC065,0.00,VWS V13.01,2013-02-25 00:00:00,
2013-02-24 19:05:00,33.4,21.0,29.98,West,264,2.0,5.0,60,0.00,,OVC065,0.00,VWS V13.01,2013-02-25 00:05:00,
2013-02-24 19:10:00,33.5,21.1,29.98,WNW,298,0.0,7.0,60,0.00,,OVC065,0.00,VWS V13.01,2013-02-25 00:10:00,
2013-02-24 19:15:00,33.5,21.1,29.98,West,280,2.0,8.0,60,0.00,,OVC065,0.00,VWS V13.01,2013-02-25 00:15:00,
2013-02-24 19:20:00,33.5,21.1,29.98,WSW,251,4.0,8.0,60,0.00,,OVC065,0.00,VWS V13.01,2013-02-25 00:20:00,
2013-02-24 19:25:00,33.5,21.5,29.98,WSW,245,0.0,8.0,61,0.00,,OVC065,0.00,VWS V13.01,2013-02-25 00:25:00,
2013-02-24 19:30:00,33.4,21.4,29.98,WSW,254,0.0,0.0,61,0.00,,OVC065,0.00,VWS V13.01,2013-02-25 00:30:00,
2013-02-24 19:35:00,33.3,21.7,29.99,NW,307,1.0,4.0,62,0.00,,BKN070,0.00,VWS V13.01,2013-02-25 00:35:00,
2013-02-24 19:40:00,33.1,21.5,29.99,NW,307,0.0,4.0,62,0.00,,BKN070,0.00,VWS V13.01,2013-02-25 00:40:00,
2013-02-24 19:45:00,33.0,21.4,29.99,WNW,290,0.0,7.0,62,0.00,,BKN070,0.00,VWS V13.01,2013-02-25 00:45:00,
2013-02-24 19:50:00,32.9,21.3,30.00,West,272,4.0,7.0,62,0.00,,BKN070,0.00,VWS V13.01,2013-02-25 00:50:00,
2013-02-24 19:55:00,32.9,21.3,30.00,West,259,0.0,7.0,62,0.00,,BKN070,0.00,VWS V13.01,2013-02-25 00:55:00,
2013-02-24 20:00:00,32.7,21.1,30.00,WSW,246,2.0,2.0,62,0.00,,BKN070,0.00,VWS V13.01,2013-02-25 01:00:00,
2013-02-24 20:05:00,32.6,21.0,30.00,West,260,2.0,4.0,62,0.00,,BKN070,0.00,VWS V13.01,2013-02-25 01:05:00,
2013-02-24 20:10:00,32.5,21.3,30.00,WSW,250,3.0,5.0,63,0.00,,BKN070,0.00,VWS V13.01,2013-02-25 01:10:00,
2013-02-24 20:15:00,32.4,21.2,30.01,SW,233,0.0,5.0,63,0.00,,BKN070,0.00,VWS V13.01,2013-02-25 01:15:00,
2013-02-24 20:20:00,32.2,21.0,30.01,SW,233,0.0,5.0,63,0.00,,BKN070,0.00,VWS V13.01,2013-02-25 01:20:00,
2013-02-24 20:25:00,32.0,21.2,30.01,WSW,239,0.0,5.0,64,0.00,,BKN070,0.00,VWS V13.01,2013-02-25 01:25:00,
2013-02-24 20:30:00,31.8,21.0,30.01,WSW,238,2.0,2.0,64,0.00,,BKN070,0.00,VWS V13.01,2013-02-25 01:30:00,
2013-02-24 20:35:00,31.6,20.8,30.01,WSW,238,1.0,4.0,64,0.00,,CLR,0.00,VWS V13.01,2013-02-25 01:35:00,
2013-02-24 20:40:00,31.5,20.7,30.01,WSW,251,1.0,4.0,64,0.00,,CLR,0.00,VWS V13.01,2013-02-25 01:40:00,
2013-02-24 20:45:00,31.4,20.6,30.01,WSW,252,1.0,6.0,64,0.00,,CLR,0.00,VWS V13.01,2013-02-25 01:45:00,
2013-02-24 20:50:00,31.4,20.6,30.01,SW,235,1.0,6.0,64,0.00,,CLR,0.00,VWS V13.01,2013-02-25 01:50:00,
2013-02-24 20:55:00,31.3,20.5,30.01,SSW,213,0.0,6.0,64,0.00,,CLR,0.00,VWS V13.01,2013-02-25 01:55:00,
2013-02-24 21:00:00,31.2,20.5,30.02,SSW,213,0.0,6.0,64,0.00,,CLR,0.00,VWS V13.01,2013-02-25 02:00:00,
2013-02-24 21:05:00,31.0,20.6,30.01,SSW,213,0.0,0.0,65,0.00,,CLR,0.00,VWS V13.01,2013-02-25 02:05:00,
2013-02-24 21:10:00,30.8,20.4,30.01,SSW,212,0.0,0.0,65,0.00,,CLR,0.00,VWS V13.01,2013-02-25 02:10:00,
2013-02-24 21:15:00,30.5,20.1,30.01,South,182,0.0,0.0,65,0.00,,CLR,0.00,VWS V13.01,2013-02-25 02:15:00,
2013-02-24 21:20:00,30.2,20.6,30.01,South,180,1.0,2.0,67,0.00,,CLR,0.00,VWS V13.01,2013-02-25 02:20:00,
2013-02-24 21:25:00,30.1,20.5,30.02,South,180,1.0,3.0,67,0.00,,CLR,0.00,VWS V13.01,2013-02-25 02:25:00,
2013-02-24 21:30:00,30.0,20.7,30.02,South,181,0.0,3.0,68,0.00,,CLR,0.00,VWS V13.01,2013-02-25 02:30:00,
2013-02-24 21:35:00,30.0,20.7,30.02,South,180,0.0,3.0,68,0.00,,CLR,0.00,VWS V13.01,2013-02-25 02:35:00,
2013-02-24 21:40:00,29.8,20.5,30.02,South,176,0.0,3.0,68,0.00,,CLR,0.00,VWS V13.01,2013-02-25 02:40:00,
2013-02-24 21:45:00,29.6,20.7,30.02,SSE,156,0.0,3.0,69,0.00,,CLR,0.00,VWS V13.01,2013-02-25 02:45:00,
2013-02-24 21:50:00,29.5,20.6,30.03,SSE,160,1.0,3.0,69,0.00,,CLR,0.00,VWS V13.01,2013-02-25 02:50:00,
2013-02-24 21:55:00,29.6,20.7,30.03,SSW,201,2.0,3.0,69,0.00,,CLR,0.00,VWS V13.01,2013-02-25 02:55:00,
2013-02-24 22:00:00,29.7,20.8,30.03,South,186,2.0,4.0,69,0.00,,CLR,0.00,VWS V13.01,2013-02-25 03:00:00,
2013-02-24 22:05:00,29.7,20.5,30.02,SW,227,0.0,4.0,68,0.00,,CLR,0.00,VWS V13.01,2013-02-25 03:05:00,
2013-02-24 22:10:00,29.7,20.5,30.03,SW,224,0.0,4.0,68,0.00,,CLR,0.00,VWS V13.01,2013-02-25 03:10:00,
2013-02-24 22:15:00,29.7,20.5,30.03,SSW,199,0.0,4.0,68,0.00,,CLR,0.00,VWS V13.01,2013-02-25 03:15:00,
2013-02-24 22:20:00,29.7,20.5,30.03,SSW,193,4.0,5.0,68,0.00,,CLR,0.00,VWS V13.01,2013-02-25 03:20:00,
2013-02-24 22:25:00,29.9,20.3,30.03,SSW,211,0.0,7.0,67,0.00,,CLR,0.00,VWS V13.01,2013-02-25 03:25:00,
2013-02-24 22:30:00,29.9,20.3,30.03,SSW,211,0.0,7.0,67,0.00,,CLR,0.00,VWS V13.01,2013-02-25 03:30:00,
2013-02-24 22:35:00,30.0,20.4,30.03,SSW,206,1.0,4.0,67,0.00,,BKN070,0.00,VWS V13.01,2013-02-25 03:35:00,
2013-02-24 22:40:00,30.2,20.2,30.03,SSW,210,2.0,5.0,66,0.00,,BKN070,0.00,VWS V13.01,2013-02-25 03:40:00,
2013-02-24 22:45:00,30.3,20.3,30.02,South,189,3.0,5.0,66,0.00,,BKN070,0.00,VWS V13.01,2013-02-25 03:45:00,
2013-02-24 22:50:00,30.4,20.4,30.02,South,189,1.0,5.0,66,0.00,,BKN070,0.00,VWS V13.01,2013-02-25 03:50:00,
2013-02-24 22:55:00,30.4,20.4,30.02,SSW,196,3.0,5.0,66,0.00,,BKN070,0.00,VWS V13.01,2013-02-25 03:55:00,
2013-02-24 23:00:00,30.5,20.5,30.03,SW,218,0.0,5.0,66,0.00,,BKN070,0.00,VWS V13.01,2013-02-25 04:00:00,
2013-02-24 23:05:00,30.5,20.5,30.03,WSW,242,0.0,6.0,66,0.00,,BKN070,0.00,VWS V13.01,2013-02-25 04:05:00,
2013-02-24 23:10:00,30.5,20.5,30.02,SW,227,0.0,6.0,66,0.00,,BKN070,0.00,VWS V13.01,2013-02-25 04:10:00,
2013-02-24 23:15:00,30.5,20.9,30.02,SW,227,0.0,6.0,67,0.00,,BKN070,0.00,VWS V13.01,2013-02-25 04:15:00,
2013-02-24 23:20:00,30.5,20.5,30.02,SW,215,2.0,6.0,66,0.00,,BKN070,0.00,VWS V13.01,2013-02-25 04:20:00,
2013-02-24 23:25:00,30.6,21.0,30.02,SSW,192,0.0,6.0,67,0.00,,BKN070,0.00,VWS V13.01,2013-02-25 04:25:00,
2013-02-24 23:30:00,30.7,21.1,30.03,SSW,207,1.0,2.0,67,0.00,,BKN070,0.00,VWS V13.01,2013-02-25 04:30:00,
2013-02-24 23:35:00,30.7,21.1,30.03,SSW,207,1.0,2.0,67,0.00,,OVC060,0.00,VWS V13.01,2013-02-25 04:35:00,
2013-02-24 23:40:00,30.8,21.1,30.03,WSW,246,2.0,7.0,67,0.00,,OVC060,0.00,VWS V13.01,2013-02-25 04:40:00,
2013-02-24 23:45:00,30.8,21.1,30.03,SW,231,4.0,7.0,67,0.00,,OVC060,0.00,VWS V13.01,2013-02-25 04:45:00,
2013-02-24 23:50:00,30.9,21.2,30.03,SSW,195,4.0,7.0,67,0.00,,OVC060,0.00,VWS V13.01,2013-02-25 04:50:00,
2013-02-24 23:55:00,31.0,21.3,30.03,SSW,200,3.0,7.0,67,0.00,,OVC060,0.00,VWS V13.01,2013-02-25 04:55:00,